| time (UTC) | temp C | wind direction | speed KPH | gust KPH | rain 1hr cm | rain 24hr cm | rain mn cm | humidity % | barometer mb |
| 20260504214408 | 14 | 83 | 0.0 | 0.0 | 0.00 | 0.00 | 0.00 | 72 | 1014.7 |
| 20260504212903 | 14 | 84 | 0.0 | 0.0 | 0.00 | 0.00 | 0.00 | 67 | 1014.8 |
| 20260504211404 | 15 | 84 | 0.0 | 1.6 | 0.00 | 0.00 | 0.00 | 65 | 1014.7 |
| 20260504205902 | 16 | 82 | 0.0 | 4.8 | 0.00 | 0.00 | 0.00 | 61 | 1014.7 |
| 20260504204408 | 16 | 93 | 1.6 | 4.8 | 0.00 | 0.00 | 0.00 | 62 | 1014.8 |
| 20260504202910 | 16 | 59 | 0.0 | 4.8 | 0.00 | 0.00 | 0.00 | 63 | 1014.8 |
| 20260504201402 | 15 | 98 | 0.0 | 4.8 | 0.00 | 0.00 | 0.00 | 63 | 1014.9 |
| 20260504195902 | 15 | 103 | 0.0 | 4.8 | 0.00 | 0.00 | 0.00 | 62 | 1015.1 |
| 20260504194359 | 15 | 103 | 0.0 | 4.8 | 0.00 | 0.00 | 0.00 | 62 | 1014.8 |
| 20260504192908 | 15 | 118 | 0.0 | 0.0 | 0.00 | 0.00 | 0.00 | 62 | 1014.6 |
| 20260504191402 | 16 | 118 | 0.0 | 1.6 | 0.00 | 0.00 | 0.00 | 58 | 1014.7 |
| 20260504185858 | 17 | 121 | 0.0 | 3.2 | 0.00 | 0.00 | 0.00 | 55 | 1014.9 |
| 20260504184401 | 17 | 121 | 0.0 | 1.6 | 0.00 | 0.00 | 0.00 | 54 | 1014.7 |
| 20260504182859 | 18 | 121 | 0.0 | 3.2 | 0.00 | 0.00 | 0.00 | 52 | 1014.6 |
| 20260504181359 | 18 | 121 | 1.6 | 1.6 | 0.00 | 0.00 | 0.00 | 50 | 1014.6 |
| 20260504175858 | 19 | 122 | 1.6 | 1.6 | 0.00 | 0.00 | 0.00 | 49 | 1014.6 |
| 20260504174359 | 20 | 158 | 0.0 | 1.6 | 0.00 | 0.00 | 0.00 | 47 | 1014.6 |
| 20260504172837 | 20 | 185 | 0.0 | 0.0 | 0.00 | 0.00 | 0.00 | 45 | 1014.6 |
| 20260504171329 | 21 | 197 | 0.0 | 0.0 | 0.00 | 0.00 | 0.00 | 46 | 1014.8 |
| 20260504141307 | 24 | 274 | 1.6 | 6.4 | 0.00 | 0.00 | 0.00 | 39 | 1015.7 |
| 20260504081307 | 17 | 158 | 6.4 | 11.3 | 0.00 | 0.00 | 0.00 | 47 | 1017.8 |
| 20260504045817 | 11 | 231 | 0.0 | 9.7 | 0.00 | 0.00 | 0.00 | 59 | 1017.9 |
| 20260504044307 | 11 | 71 | 3.2 | 9.7 | 0.00 | 0.00 | 0.00 | 58 | 1017.2 |
| 20260504042806 | 11 | 60 | 0.0 | 6.4 | 0.00 | 0.00 | 0.00 | 59 | 1017.3 |
| 20260504041306 | 10 | 60 | 4.8 | 6.4 | 0.00 | 0.00 | 0.00 | 59 | 1017.2 |
| 20260504035806 | 10 | 29 | 0.0 | 4.8 | 0.00 | 0.00 | 0.00 | 60 | 1017.1 |
| 20260504034305 | 10 | 72 | 1.6 | 4.8 | 0.00 | 0.00 | 0.00 | 60 | 1017.3 |
| 20260504032805 | 10 | 81 | 0.0 | 3.2 | 0.00 | 0.00 | 0.00 | 57 | 1017.2 |
| 20260504031307 | 11 | 50 | 3.2 | 11.3 | 0.00 | 0.00 | 0.00 | 57 | 1017.2 |
| 20260504025807 | 11 | 52 | 3.2 | 12.9 | 0.00 | 0.00 | 0.00 | 54 | 1017.2 |
| 20260504024305 | 12 | 94 | 4.8 | 16.1 | 0.00 | 0.00 | 0.00 | 54 | 1017.0 |
| 20260504022805 | 12 | 89 | 6.4 | 14.5 | 0.00 | 0.00 | 0.00 | 54 | 1016.9 |
| 20260504021306 | 12 | 22 | 6.4 | 11.3 | 0.00 | 0.00 | 0.00 | 54 | 1017.2 |
| 20260504015806 | 12 | 81 | 3.2 | 11.3 | 0.00 | 0.00 | 0.00 | 54 | 1017.2 |
| 20260504014303 | 12 | 54 | 4.8 | 14.5 | 0.00 | 0.00 | 0.00 | 52 | 1017.1 |
| 20260504012815 | 12 | 82 | 8.0 | 14.5 | 0.00 | 0.00 | 0.00 | 52 | 1017.1 |
| 20260504011330 | 12 | 67 | 4.8 | 17.7 | 0.00 | 0.00 | 0.00 | 52 | 1016.9 |
| 20260504005916 | 12 | 105 | 6.4 | 12.9 | 0.00 | 0.00 | 0.00 | 52 | 1016.9 |
| 20260504004306 | 12 | 70 | 3.2 | 11.3 | 0.00 | 0.00 | 0.00 | 53 | 1017.0 |
| 20260504002812 | 12 | 70 | 3.2 | 9.7 | 0.00 | 0.00 | 0.00 | 53 | 1016.9 |
| 20260504001347 | 13 | 84 | 4.8 | 9.7 | 0.00 | 0.00 | 0.00 | 53 | 1016.9 |
| 20260503235807 | 13 | 102 | 1.6 | 11.3 | 0.00 | 0.00 | 0.00 | 53 | 1016.7 |
| 20260503234305 | 13 | 71 | 4.8 | 12.9 | 0.00 | 0.00 | 0.00 | 52 | 1016.6 |
| 20260503232806 | 13 | 93 | 3.2 | 12.9 | 0.00 | 0.00 | 0.00 | 52 | 1016.6 |
| 20260503231306 | 13 | 43 | 1.6 | 11.3 | 0.00 | 0.00 | 0.00 | 51 | 1016.9 |
| 20260503225805 | 13 | 83 | 3.2 | 9.7 | 0.00 | 0.00 | 0.00 | 51 | 1016.9 |
| 20260503224306 | 14 | 75 | 4.8 | 11.3 | 0.00 | 0.00 | 0.00 | 50 | 1016.9 |
| 20260503222806 | 15 | 79 | 4.8 | 12.9 | 0.00 | 0.00 | 0.00 | 49 | 1016.9 |
| 20260503221305 | 15 | 59 | 3.2 | 14.5 | 0.00 | 0.00 | 0.00 | 49 | 1016.8 |
| 20260503215805 | 15 | 67 | 3.2 | 16.1 | 0.00 | 0.00 | 0.00 | 49 | 1017.0 |